{"data":{"norad_id":54771,"epoch":"2026-05-25T01:47:37.739904Z","epoch_age_seconds":69409,"freshness":"FRESH","line1":"1 54771U 22175P   26145.07474236  .00000306  00000+0  37286-4 0  9990","line2":"2 54771  53.2150  56.0130 0001457 100.6866 259.4290 15.08841543191529","mean_motion":15.08841543,"eccentricity":0.0001457,"inclination_deg":53.215,"raan_deg":56.013,"arg_perigee_deg":100.6866,"mean_anomaly_deg":259.429,"bstar":3.7286e-5,"rev_number":19152,"period_min":95.437457079613,"perigee_km":538.73073814891,"apogee_km":540.74660711991,"semimajor_km":6917.8756726344,"source":"CELESTRAK","updated_at":"2026-05-25T13:38:17.690334Z"}}